TIME,DELAY(SENSOR),PRES,T(CTD),SAL,OXYGEN,RAWTEMP,T(OPTODE),TCPHASE,FLUOR,BETA(BETA700),BETA(BETA412),BETA(BETA440),CDOM,C(CSC),ED(ED412.40),ED(ED444.00),ED(ED489.70),ED(ED554.30),LU(LU411.80),LU(LU443.40),LU(LU489.60),LU(LU554.10),COMP,TILTX,TILTX(TILTY),CHECK
1361741865,5810,494.5899963378906000,6.8393998146057130,34.1202011108398440,86.6383132934570300,592.7736206054688000,6.8174571990966800,48.0386009216308600,52,104,89,79,79,14875,2147746660,2147426212,2148005385,2147873499,2147625088,2147077458,2148245321,2147200768,1051,4,13,15291
1361742025,5806,481.3200073242187500,7.0055999755859375,34.1157989501953100,90.1606674194336000,587.3649291992188000,6.9916739463806150,47.5594596862793000,52,103,84,78,79,14879,2147747355,2147423515,2148005019,2147871789,2147629357,2147078784,2148243584,2147203794,1645,4,13,15764
1361742142,5805,469.7999877929687500,7.2211999893188480,34.1142997741699200,95.7466583251953100,580.9390869140625000,7.1982979774475100,46.8481101989746100,51,102,87,80,77,14878,2147747913,2147424868,2148002404,2147872896,2147626121,2147080566,2148241307,2147203337,1770,4,13,24558
1361742245,5810,459.1600036621094000,7.3379998207092285,34.1122016906738300,98.2005233764648400,577.1677246093750000,7.3193969726562500,46.5271492004394500,51,104,90,79,77,14878,2147744978,2147422802,2148004306,2147873078,2147625920,2147084790,2148236388,2147203611,2662,4,13,15656
1361742351,5806,448.5000000000000000,7.4854001998901370,34.1058998107910160,103.9290008544921900,572.5394897460938000,7.4678339958190920,45.8521385192871100,50,102,85,80,77,14880,2147744329,2147422646,2148003730,2147875648,2147624301,2147083209,2148243913,2147203145,390,4,13,13752
1361742466,5810,437.6700134277344000,7.6826000213623050,34.0976982116699200,110.2574005126953100,566.2418823242188000,7.6695060729980470,45.1033287048339840,51,104,86,81,77,14879,2147747986,2147423414,2148002989,2147876754,2147623808,2147082048,2148239003,2147204571,203,4,13,28023
1361742593,5807,426.8200073242187500,7.8509001731872560,34.0844001770019500,121.2774963378906200,561.1564941406250000,7.8321108818054200,43.9492683410644500,50,104,88,80,76,14877,2147746130,2147422436,2148004041,2147872758,2147621750,2147084489,2148240539,2147201810,2189,3,13,64849
1361742735,5808,415.6799926757812500,8.1498003005981450,34.0859985351562500,131.8899993896484400,551.4414062500000000,8.1421356201171880,42.8069496154785160,50,104,84,80,76,14878,2147742253,2147421458,2148003977,2147873106,2147618002,2147086573,2148234861,2147201801,3119,4,13,59651
1361742886,5809,404.2699890136719000,8.4651002883911130,34.0880012512207000,144.0959014892578000,541.6633300781250000,8.4533815383911130,41.5818099975585940,50,105,86,81,75,14875,2147739264,2147424356,2148004397,2147871771,2147618450,2147086400,2148233289,2147201792,3357,3,13,2417
1361743024,5808,392.1199951171875000,8.6674003601074220,34.0877990722656250,153.3441009521484400,535.2706298828125000,8.6564502716064450,40.7156906127929700,50,104,85,79,74,14874,2147739702,2147423168,2148004973,2147872713,2147616429,2147088950,2148228342,2147204169,3167,3,13,64959
1361743127,5808,381.3099975585937500,8.8830995559692380,34.0924987792968750,158.0820007324218800,527.3621215820312000,8.9072284698486330,40.2057991027832000,50,103,85,80,75,14877,2147737270,2147423094,2148002944,2147872603,2147615241,2147089563,2148227510,2147206052,563,3,13,1703
1361743242,5803,369.2900085449219000,9.1100997924804690,34.0898017883300800,168.2841033935547000,519.9434204101562000,9.1420364379882810,39.3053588867187500,50,104,87,78,74,14874,2147737472,2147425910,2148001289,2147873270,2147611108,2147094866,2148225837,2147204489,1069,4,13,46087
1361743361,5811,358.2600097656250000,9.4681997299194340,34.0929985046386700,178.7214050292968800,509.6463928222656000,9.4672670364379880,38.3828697204589840,49,103,85,80,72,14874,2147737426,2147423826,2148005211,2147873581,2147613686,2147093805,2148227373,2147206637,1385,4,13,15018
1361743500,5808,347.5799865722656000,9.6676998138427730,34.1002006530761700,183.9313049316406200,503.6427001953125000,9.6565380096435550,37.9243087768554700,50,105,89,79,71,14874,2147735908,2147426276,2148005366,2147874185,2147611081,2147096603,2148225216,2147205284,1338,3,13,38476
1361743641,5810,336.8699951171875000,10.1649999618530270,34.1194992065429700,188.8320007324218800,488.4248046875000000,10.1351699829101560,37.3388786315918000,50,104,86,81,71,14876,2147734436,2147429074,2148005979,2147875922,2147608685,2147102162,2148224146,2147202752,1281,3,13,33847
1361743792,5808,326.2399902343750000,10.4184999465942380,34.1305999755859400,200.3531951904297000,479.8688049316406000,10.4035902023315430,36.4633293151855500,50,105,88,80,70,14877,2147733805,2147424082,2148010404,2147873782,2147609161,2147102043,2148225545,2147200758,280,4,13,34083
1361743973,5806,313.5499877929687500,10.9916000366210940,34.1506004333496100,203.3050994873047000,461.5405883789062500,10.9770202636718750,35.9800910949707000,48,107,89,81,70,14875,2147734226,2147425892,2148015689,2147875008,2147607268,2147109348,2148224338,2147202779,1755,3,13,57294
1361744112,5807,302.2999877929687500,11.3931999206542970,34.1688003540039060,206.1878051757812500,447.8521118164062500,11.4039697647094730,35.5842285156250000,48,105,86,82,71,14872,2147731053,2147426230,2148023524,2147870646,2147601252,2147109010,2148223405,2147204717,2699,3,13,35244
1361744248,5808,291.1400146484375000,11.7732000350952150,34.1871986389160160,208.8437957763672000,436.3261108398437500,11.7626495361328120,35.2421302795410160,48,103,88,81,70,14871,2147730422,2147431826,2148030226,2147873124,2147603172,2147116278,2148226925,2147207753,2148,3,14,2351
1361744364,5809,280.1199951171875000,12.0651998519897460,34.2024002075195300,211.3986968994140600,426.8454895019531000,12.0571498870849610,34.9425888061523440,49,103,84,80,69,14872,2147728411,2147436900,2148040676,2147870866,2147601435,2147118217,2148231433,2147208292,2919,3,14,1123
1361744479,5807,269.4599914550781000,12.5495004653930660,34.2237014770507800,212.7760009765625000,411.1083068847656000,12.5450000762939450,34.6150703430175800,48,102,88,80,68,14873,2147726080,2147441325,2148057408,2147874953,2147596224,2147127561,2148237732,2147211977,2275,3,14,46540
1361744609,5810,258.5899963378906000,13.1820001602172850,34.2668991088867200,215.5856018066406200,390.4844970703125000,13.1826000213623050,34.1367988586425800,48,103,86,80,68,14872,2147727789,2147451465,2148084470,2147873362,2147592658,2147136438,2148244187,2147209426,966,3,14,40462
1361744748,5806,247.1600036621093800,14.0214004516601560,34.3188018798828100,216.2165069580078000,362.1502990722656000,14.0557403564453120,33.6698913574218750,48,102,84,79,67,14873,2147725129,2147458761,2148098368,2147873325,2147592292,2147144758,2148249490,2147208694,1056,4,14,43246
1361744889,5810,236.2700042724609400,14.7237997055053710,34.3861999511718750,219.6743011474609400,339.9505004882812500,14.7379102706909180,33.1497917175293000,49,100,86,81,67,14868,2147722834,2147480795,2148156480,2147873481,2147589970,2147163474,2148271762,2147212571,1028,3,14,6910
1361745016,5810,225.9600067138672000,15.7522001266479500,34.4964981079101560,217.1831970214843800,307.0945129394531000,15.7450399398803710,32.8038711547851560,48,101,87,78,65,14866,2147722843,2147505929,2148211081,2147874331,2147588745,2147183670,2148290660,2147218934,1666,3,14,11783
1361745176,5810,212.9700012207031200,16.5715007781982420,34.5950012207031250,215.7528076171875000,280.0202941894531000,16.5732707977294920,32.4925384521484400,48,102,85,79,65,14866,2147733924,2147557814,2148325897,2147874660,2147583862,2147222016,2148342034,2147222528,3308,3,15,45445
1361745292,5809,202.1100006103515600,17.9246997833251950,34.7709999084472660,211.0825958251953000,235.0733032226562500,17.9464092254638670,32.1142692565918000,49,101,86,79,66,14861,2147745691,2147628434,2148460827,2147874020,2147585289,2147269001,2148407670,2147225472,2537,3,14,55947
1361745347,5808,197.1999969482422000,18.3759994506835940,34.8413009643554700,211.9698944091797000,221.4591064453125000,18.3621597290039060,31.8765907287597660,50,103,86,79,64,14861,2147751469,2147660379,2148534957,2147873554,2147588562,2147294738,2148438665,2147228160,2016,3,15,51640
1361745402,5809,192.3000030517578000,18.6124000549316400,34.8785018920898440,213.0686035156250000,212.9895935058593800,18.6208190917968750,31.6997509002685550,50,104,83,80,66,14860,2147762834,2147704054,2148611785,2147874075,2147591296,2147327396,2148474770,2147235410,2020,2,15,53357
1361745477,5810,185.7500000000000000,19.1086006164550780,34.9385986328125000,213.1367034912109400,197.8789062500000000,19.0823802947998050,31.4891700744628900,51,105,88,80,62,14853,2147783323,2147776082,2148750784,2147876022,2147597056,2147372681,2148541056,2147238326,2526,3,15,13606
1361745532,5806,181.2100067138672000,19.1550998687744140,34.9486999511718750,213.5702972412109400,195.6004943847656200,19.1519908905029300,31.4345302581787100,53,103,86,80,64,14855,2147801124,2147836754,2148861833,2147873298,2147603904,2147405366,2148601188,2147244644,2854,3,15,35762
1361745587,5807,176.3999938964843800,19.3020992279052730,34.9640007019043000,213.2422943115234400,190.0505065917968800,19.3215694427490230,31.3769702911376950,53,106,86,81,63,14850,2147824164,2147916434,2149013010,2147878308,2147611538,2147461202,2148678400,2147249325,3510,2,15,29630
1361745642,5806,171.6900024414062500,19.6986999511718750,35.0214004516601560,213.4523010253906200,178.4355926513672000,19.6765708923339840,31.2081794738769530,57,108,88,80,63,14844,2147862354,2148009545,2149189056,2147877266,2147626889,2147521609,2148762880,2147254957,188,2,15,6337
1361745697,5806,167.1999969482422000,19.8390998840332030,35.0441017150878900,214.1179962158203000,172.8009033203125000,19.8488502502441400,31.0965995788574220,58,111,90,80,64,14841,2147896832,2148105819,2149359113,2147877632,2147643977,2147584841,2148841142,2147259968,456,2,14,46644
1361745752,5808,162.7500000000000000,20.1439990997314450,35.0744018554687500,213.4022979736328000,162.2476043701172000,20.1716499328613280,30.9929904937744140,61,114,88,81,64,14834,2147948891,2148227949,2149569179,2147879168,2147661238,2147653787,2148941924,2147266733,531,2,15,63722
1361745831,5804,157.3800048828125000,20.6124992370605470,35.1318016052246100,214.5173950195312500,149.0534057617187500,20.5755004882812500,30.7576599121093750,70,117,90,80,63,14827,2148019108,2148394194,2149871350,2147879259,2147691172,2147750985,2149083419,2147277165,150,3,15,19575
1361745910,5803,153.3399963378906200,20.7558994293212900,35.1507987976074200,215.3379058837890600,144.8825988769531200,20.7032299041748050,30.6590900421142580,75,118,90,83,64,14817,2148093769,2148576557,2150183771,2147885010,2147721801,2147853970,2149221211,2147291474,480,3,15,30999
1361745989,5810,149.8500061035156200,20.9111995697021500,35.1576995849609400,215.2487030029297000,138.5422058105468800,20.8974800109863280,30.5796394348144530,79,118,90,82,62,14814,2148165037,2148726966,2150436050,2147885696,2147750628,2147925467,2149323584,2147296393,740,2,15,46948
1361746092,5810,145.4900054931640600,21.0235004425048830,35.1655998229980500,214.4698944091797000,134.2039947509765600,21.0304393768310550,30.5630397796630860,83,121,89,81,63,14810,2148272000,2148925092,2150752164,2147890752,2147794944,2148036242,2149472722,2147310884,412,2,15,42879
1361746186,5811,141.7299957275390600,21.2854003906250000,35.1908988952636700,214.7066955566406200,128.7315979003906200,21.1982402801513670,30.4784507751464840,90,119,92,83,62,14802,2148425225,2149229632,2151238811,2147893074,2147854747,2148183835,2149661156,2147323638,1181,2,15,26803
1361746289,5810,137.6000061035156200,21.4211997985839840,35.2008018493652340,216.2427062988281200,122.0624008178711000,21.4028301239013670,30.3104496002197270,100,121,90,82,63,14792,2148623908,2149571044,2151743232,2147900580,2147932470,2148357174,2149893833,2147343414,3154,1,16,23215
1361746392,5810,133.6900024414062500,21.4885997772216800,35.2047996520996100,218.2178039550781200,119.2489013671875000,21.4891796112060550,30.1716194152832030,100,122,88,83,61,14788,2148912877,2150078985,2152502948,2147910281,2148037302,2148572022,2150167872,2147367442,2550,2,16,62159
1361746491,5809,129.7500000000000000,21.6725997924804700,35.2188987731933600,219.6334991455078000,114.3657989501953100,21.6390895843505860,30.0354309082031250,102,124,91,81,62,14780,2149075657,2150229449,2152559186,2147917376,2148099282,2148634642,2150198902,2147370925,2340,2,16,20057
1361746582,5808,125.8099975585937500,21.7318992614746100,35.2228012084960940,220.2409057617187500,111.3422012329101600,21.7319507598876950,29.9651203155517580,107,123,92,84,61,14757,2149070592,2149981952,2151950134,2147911862,2148096356,2148497499,2149924388,2147352886,3399,2,16,56522
1361746685,5808,121.5400009155273400,21.8826007843017580,35.2307014465332000,221.0260925292968800,107.0548019409179700,21.8636798858642580,29.8697700500488280,110,122,90,83,63,14775,2150589878,2152632658,2156070281,2147963830,2148666450,2149694729,2151528009,2147495634,3496,2,16,462
1361746778,5809,118.2099990844726600,22.2073001861572270,35.2391014099121100,220.1284027099609400,96.8154067993164000,22.1785106658935550,29.7824802398681640,129,126,90,83,63,14755,2151267062,2153573449,2157247954,2147985234,2148890742,2150029750,2151911506,2147529929,2766,1,16,51331
1361746941,5806,114.2200012207031200,22.2679996490478500,35.2439002990722660,221.4078063964843800,93.9887771606445300,22.2654800415039060,29.6815605163574220,139,122,89,82,63,14754,2152537316,2155325878,2159401965,2148023771,2149335661,2150681024,2152636196,2147603154,2316,1,16,41033
1361747104,5806,109.7600021362304700,22.4764003753662100,35.2487983703613300,223.2303924560547000,87.3487472534179700,22.4699001312255860,29.5054092407226560,132,122,89,83,62,14746,2154850185,2158187117,2162609938,2148087405,2150157083,2151787894,2153757193,2147721737,2235,2,16,60909
1361747207,5813,106.0599975585937500,22.6968002319335940,35.2504005432128900,224.6246032714843800,81.1434097290039000,22.6610794067382800,29.3569297790527340,143,127,91,83,62,14727,2157589385,2161526966,2166260608,2148160475,2151110555,2153069193,2155072237,2147854948,2448,2,16,58556
1361747334,5808,102.0199966430664000,22.9272994995117200,35.2574996948242200,228.5191040039062500,73.0028762817382800,22.9121093750000000,29.0640792846679700,152,124,90,84,62,14706,2161471945,2166126683,2170820068,2148265664,2152598262,2154899794,2156781796,2148038262,1654,1,16,56222
1361747425,5810,98.3399963378906200,23.0338993072509770,35.2621994018554700,230.4503936767578000,69.1245422363281200,23.0317993164062500,28.9228706359863280,139,122,87,85,61,14699,2166354130,2171689417,2176336310,2148417033,2154429339,2157099904,2158776877,2148254363,1015,1,16,40421
1361747480,5807,95.5699996948242200,23.2647991180419920,35.2728004455566400,231.5868988037109400,62.2442398071289060,23.2442798614501950,28.7822208404541000,121,121,90,84,61,14692,2170029440,2175622610,2180033709,2148545170,2155965421,2158871588,2160332598,2148422674,584,2,16,19989
1361747535,5811,92.9599990844726600,23.4787998199462900,35.2859001159668000,232.5845947265625000,55.5157814025878900,23.4522705078125000,28.6504306793212900,104,118,92,83,61,14708,2173598198,2179267913,2183181138,2148641764,2157712941,2160862747,2162068955,2148613129,66,2,16,19985
1361747590,5807,90.5500030517578100,23.5641994476318360,35.2932014465332000,233.3168945312500000,52.8110198974609400,23.5359401702880860,28.5823001861572270,87,121,89,83,60,14711,2176236470,2181719606,2185007634,2148755785,2159282934,2162550518,2163359405,2148748397,3147,2,16,6527
1361747645,5811,88.1500015258789000,23.6089000701904300,35.2981986999511700,234.0151977539062500,50.7446403503418000,23.5998802185058600,28.5240707397460940,81,121,91,83,59,14704,2180389540,2186292233,2189578432,2148945152,2161467181,2165047862,2165472374,2148970651,3322,2,15,5955
1361747703,5805,85.4700012207031200,23.6378002166748050,35.2998008728027340,234.6620025634765600,49.7537918090820300,23.6305503845214840,28.4816398620605470,81,121,91,84,58,14716,2185706285,2192076388,2195112512,2149167222,2164422235,2168391881,2168165842,2149248914,435,2,16,49942
1361747758,5808,82.7300033569336000,23.7017002105712900,35.3012008666992200,234.8845062255859400,47.6520996093750000,23.6956100463867200,28.4451198577880860,76,121,90,83,59,14717,2190895661,2197634358,2200191424,2149456064,2167526390,2171759433,2170836406,2149542281,1017,1,16,54206
1361747813,5807,80.1500015258789000,23.8288002014160160,35.3083000183105500,234.8253021240234400,43.8414192199707000,23.8136405944824220,28.4002304077148440,74,119,90,83,57,14728,2195961627,2202460982,2204485760,2149776356,2170728438,2175222710,2173569545,2149845056,804,2,16,25392
1361747868,5809,78.0599975585937500,23.8474998474121100,35.3114013671875000,235.2752990722656200,42.8185997009277340,23.8453292846679700,28.3665790557861330,72,123,91,84,58,14725,2200861924,2207173275,2208819858,2149998573,2173709632,2178496320,2176253933,2150109504,3400,1,16,1607
1361747935,5807,75.8700027465820300,23.9090003967285160,35.3152008056640600,235.6580963134765600,40.8065109252929700,23.9076805114746100,28.3240604400634770,71,123,90,84,57,14723,2206010130,2212192740,2213074441,2150384923,2177162962,2181876114,2178672804,2150387684,2752,1,16,31377
1361747990,5807,74.2900009155273400,23.9881000518798830,35.3198013305664060,235.9588012695312500,37.4600296020507800,24.0114402770996100,28.2684707641601560,69,122,92,85,58,14722,2209872027,2215898989,2216416192,2150675830,2180088310,2184840118,2180828050,2150625014,2979,1,17,45021
1361748069,5809,72.1299972534179700,24.2525005340576170,35.3372993469238300,236.8562011718750000,30.1474895477294920,24.2383499145507800,28.1365699768066400,65,122,90,85,56,14729,2213094098,2218588315,2218470226,2150965568,2184930642,2189325540,2183770514,2150938331,3181,1,17,63923
1361748136,5810,69.6500015258789000,24.2816009521484380,35.3408012390136700,237.8249969482422000,28.8398609161376950,24.2789497375488280,28.0764007568359380,61,121,92,83,55,14720,2217701467,2223752027,2223454345,2151580370,2192998518,2196934418,2188903533,2151433472,2602,1,16,42055
1361748191,5811,67.4400024414062500,24.2831993103027340,35.3408012390136700,238.5650024414062500,28.6962795257568360,24.2834091186523440,28.0413703918457030,62,119,91,85,56,14722,2222697718,2229222080,2229036864,2152149897,2200105078,2203670957,2193294665,2151881883,2558,1,16,26856
1361748246,5807,65.0500030517578100,24.2859992980957030,35.3418998718261700,238.8771057128906200,28.5612392425537100,24.2876091003417970,28.0255393981933600,61,118,92,84,56,14720,2228648640,2235817472,2235831049,2153131904,2209024466,2212221961,2199019593,2152543844,2432,1,16,61778
1361748301,5809,62.6599998474121100,24.2889003753662100,35.3415985107421900,239.0054931640625000,28.4083099365234380,24.2923507690429700,28.0178604125976560,59,118,91,83,57,14716,2233332507,2240478592,2240279296,2153911698,2217092397,2219887579,2204083145,2153086162,2360,1,16,4014
1361748380,5806,58.5299987792968750,24.2889995574951170,35.3415985107421900,239.2364959716797000,28.4574909210205080,24.2908306121826170,28.0080699920654300,56,117,90,83,56,14719,2240379035,2247111360,2247044132,2155948452,2230383771,2231904036,2211923611,2154032173,2581,1,16,17224
1361748435,5806,55.2799987792968750,24.2905006408691400,35.3412017822265600,239.3233032226562500,28.4177608489990230,24.2920608520507800,28.0037994384765620,58,118,88,84,59,14723,2256476534,2265180854,2266610569,2159150454,2245839680,2246951744,2222329938,2155407405,2689,1,16,22801
1361748490,5808,52.0099983215332000,24.2893009185791000,35.3414001464843750,239.3699035644531200,28.3927707672119140,24.2928390502929700,28.0013694763183600,57,116,92,83,57,14720,2265080009,2273192045,2274137161,2160925622,2261163483,2261651510,2232639424,2156644397,2933,1,17,59168
1361748545,5808,48.9000015258789060,24.2891998291015620,35.3414001464843750,239.5077056884765600,28.3495998382568360,24.2941799163818360,27.9945907592773440,56,118,91,84,58,14720,2274063360,2282486409,2284366454,2164212891,2272279085,2271560082,2238925897,2157839396,3049,1,16,33188
1361748600,5807,45.7099990844726560,24.2889995574951170,35.3409996032714840,239.5894927978515600,28.3165607452392580,24.2952098846435550,27.9904899597167970,57,118,92,83,57,14719,2293497645,2303849746,2307469202,2169650761,2289581988,2287611876,2249919469,2159605046,3396,1,16,44317
1361748655,5810,42.5299987792968750,24.2905998229980470,35.3420982360839840,239.6584014892578000,28.1745395660400400,24.2996196746826170,27.9857501983642580,56,116,90,83,59,14721,2294841078,2302744155,2304573650,2172076598,2306373147,2303540918,2260950637,2161251291,3557,1,16,3807
1361748713,5810,39.2299995422363300,24.2922992706298830,35.3414001464843750,239.6584930419922000,28.1437606811523440,24.3005695343017580,27.9854297637939450,56,117,90,83,60,14720,2312822966,2321776292,2325234925,2180662016,2327955602,2323306386,2274609005,2164078528,92,2,16,40797
1361748768,5807,36.0800018310546900,24.2929000854492200,35.3414001464843750,239.9187927246093800,28.0879001617431640,24.3023109436035160,27.9731101989746100,55,117,88,82,52,14718,2341334747,2353792832,2360457097,2191246390,2349418660,2343579401,2288302491,2167034304,283,1,16,41843
1361748823,5809,33.0800018310546900,24.2915000915527340,35.3418006896972660,239.9497985839843800,28.0186595916748050,24.3044605255126950,27.9708003997802730,55,117,91,84,56,14716,2347725869,2358841673,2366134738,2201423652,2373355126,2365965632,2303908571,2170991524,289,2,15,6760
1361748878,5810,30.0599994659423830,24.2968997955322270,35.3418006896972660,240.0760955810547000,27.8432102203369140,24.3099098205566400,27.9629993438720700,54,118,90,83,60,14722,2367147584,2378507209,2385966253,2212311533,2398932022,2389445110,2320289892,2174695158,3450,1,16,31615
1361748933,5807,26.6499996185302730,24.3062000274658200,35.3427009582519500,240.0435943603515600,27.4140205383300780,24.3232402801513670,27.9591999053955080,53,118,90,84,58,14722,2407689152,2423581577,2437431798,2240839378,2437337261,2425754614,2346094061,2181807405,109,0,16,8508
1361748988,5806,23.2900009155273440,24.3087005615234380,35.3422012329101560,240.0354003906250000,27.4359493255615230,24.3225593566894530,27.9597797393798830,52,118,92,83,52,14725,2362677284,2369965851,2375616521,2227804644,2399249892,2383330578,2312383424,2178061074,3032,0,15,15696
